"Pseudo-MPEC" for P110Jjl

Created 2020 May 26 11:07:19 UT using Find_Orb

Click here for an explanation of pseudo-MPECs

 
 Astrometry: 
     P110Jjl  C2020 05 21$oVmk.\OxuM_hmN4\jwAiXXSSMHlaPJ1`=ITQGOYAstrometry`=F51
     P110Jjl  C2020 05 21L4,/X]*G;b!niId5do9uUWR$1)%:eWiS=R26Y;R4dA7N0CIQyZ)WF51
     P110Jjl  C2020 05 21Eg]_)qLV4$h5n!*F6nA'wQ]@!5s5rQ[9h@CD7I(B;vDEC4nd;kyeF51
     P110Jjl  C2020 05 21qh9`:DAT2QVS1Y\SNYQNVeBredacted;@[g64RaVkHp5C$!_U290F51
     P110Jjl ^C2020 05 23.39703914 25 45.851-35 34 50.82   ~5NH7 21.60GVNEOCP568
     P110Jjl ^C2020 05 23.39798714 25 45.791-35 34 50.03   ~5NH7 21.58GVNEOCP568
     P110Jjl ^C2020 05 23.39893914 25 45.734-35 34 49.26   ~5NH7 21.62GVNEOCP568
     P110Jjl KC2020 05 26CLlvU%()[m%V(llpx.LDVw3yU5_eGRODXut3!6JulRg9#@G)d#Zw474
     P110Jjl KC2020 05 26V6fclicko!3G*W%,mZ.dqX_ceMhGIqhere1for,b7BO,wb.'t4`[474
     P110Jjl KC2020 05 26AhE8G+Uf22TY5%Dp1,--[9^xG?L5RqGtp9explanationA!H-gZ;474

Station data:
(474) Mount John Observatory, Lake Tekapo  (S43.987388 E170.464960)  New
   Zealand.  Observers A. C. Gilmore, P. M. Kilmartin. Measurer P. M.
   Kilmartin. 1.0-m f/7.7 reflector + CCD.
(568) Mauna Kea  (N19.826116 W155.472200)  US/Hawaii.
(F51) Pan-STARRS 1, Haleakala  (N20.707235 W156.255910)  US/Hawaii.
   Observers N. Primak, A. Schultz, S. Watters, J. Thiel, T. Goggia. Measurer
   PS1 Science Consortium. 1.8-m Ritchey-Chrétien + CCD.

Orbital elements:  P110Jjl
   Perihelion 2021 Aug 14.293456 +/- 8.02 TT =  7:02:34 (JD 2459440.793456)
Epoch 2020 May 26.0 TT = JDT 2458995.5   Earth MOID: 0.8090   AutoNEOCP
M 205.27173467 +/- 3.0              (J2000 ecliptic)
n   0.34747482 +/- 0.000996         Peri.  116.20573 +/- 2.4
a   2.00379745 +/- 0.00383          Node   277.00790 +/- 0.25
e   0.1294311 +/- 0.00224           Incl.   16.18008 +/- 0.10
P   2.84                   H 19.0   G  0.15   U  8.2  
q 1.74444363 +/- 0.00417    Q 2.26315126 +/- 0.00752
From 10 observations 2020 May 21-26; mean residual 0".13
Residuals in arcseconds: 
200521 F51  .14-  .03-    200523 568  .00   .02-    200526 474  .08-  .10+    
200521 F51  .07-  .09+    200523 568  .02-  .01+    200526 474  .40+  .08-    
200521 F51  .14+  .02+    200523 568  .01+  .01+    
200521 F51  .07+  .07-    200526 474  .31-  .03-    

Ephemerides (geocentric):
Date (UTC) HH   RA              Dec         delta   r     elong  mag " sig PA
---- -- -- --  -------------   -----------  ------ ------ -----  --- ---- ---
2020 05 26 11  14 22 55.490   -34 53 18.56  1.2972 2.2433 152.1 22.0 .086  52
2020 05 26 12  14 22 53.297   -34 52 44.33  1.2973 2.2432 152.1 22.0 .095  52
2020 05 26 13  14 22 51.107   -34 52 10.10  1.2974 2.2432 152.0 22.0 .105  52
2020 05 26 14  14 22 48.921   -34 51 35.85  1.2976 2.2432 152.0 22.0 .115  53
2020 05 26 15  14 22 46.739   -34 51 01.60  1.2977 2.2432 152.0 22.0 .125  53
2020 05 26 16  14 22 44.560   -34 50 27.34  1.2978 2.2432 151.9 22.0 .135  53
2020 05 26 17  14 22 42.384   -34 49 53.08  1.2979 2.2431 151.9 22.0 .146  53
2020 05 26 18  14 22 40.212   -34 49 18.80  1.2981 2.2431 151.9 22.0 .157  53
2020 05 26 19  14 22 38.043   -34 48 44.51  1.2982 2.2431 151.8 22.0 .167  53
2020 05 26 20  14 22 35.878   -34 48 10.22  1.2983 2.2431 151.8 22.0 .178  53
2020 05 26 21  14 22 33.717   -34 47 35.92  1.2985 2.2430 151.8 22.0 .190  53
2020 05 26 22  14 22 31.559   -34 47 01.61  1.2986 2.2430 151.8 22.0 .201  53
2020 05 26 23  14 22 29.405   -34 46 27.30  1.2987 2.2430 151.7 22.0 .212  54
2020 05 27 00  14 22 27.254   -34 45 52.98  1.2988 2.2430 151.7 22.0 .224  54
2020 05 27 01  14 22 25.107   -34 45 18.64  1.2990 2.2430 151.7 22.0 .236  54
2020 05 27 02  14 22 22.963   -34 44 44.31  1.2991 2.2429 151.6 22.0 .248  54
2020 05 27 03  14 22 20.823   -34 44 09.96  1.2992 2.2429 151.6 22.0 .260  54
2020 05 27 04  14 22 18.686   -34 43 35.61  1.2994 2.2429 151.6 22.0 .272  54
2020 05 27 05  14 22 16.553   -34 43 01.25  1.2995 2.2429 151.5 22.0 .285  54
2020 05 27 06  14 22 14.424   -34 42 26.88  1.2996 2.2428 151.5 22.0 .297  54
2020 05 27 07  14 22 12.298   -34 41 52.50  1.2997 2.2428 151.5 22.0 .310  54
2020 05 27 08  14 22 10.176   -34 41 18.12  1.2999 2.2428 151.4 22.0 .323  54
2020 05 27 09  14 22 08.057   -34 40 43.73  1.3000 2.2428 151.4 22.0 .336  54
2020 05 27 10  14 22 05.942   -34 40 09.33  1.3001 2.2427 151.4 22.0 .350  54
2020 05 27 11  14 22 03.830   -34 39 34.93  1.3003 2.2427 151.3 22.0 .363  54
2020 05 27 12  14 22 01.722   -34 39 00.52  1.3004 2.2427 151.3 22.0 .377  54
2020 05 27 13  14 21 59.618   -34 38 26.10  1.3005 2.2427 151.3 22.0 .391  55
2020 05 27 14  14 21 57.517   -34 37 51.68  1.3007 2.2427 151.2 22.0 .405  55
2020 05 27 15  14 21 55.420   -34 37 17.25  1.3008 2.2426 151.2 22.0 .419  55
2020 05 27 16  14 21 53.326   -34 36 42.81  1.3010 2.2426 151.2 22.0 .433  55
2020 05 27 17  14 21 51.236   -34 36 08.37  1.3011 2.2426 151.1 22.0 .448  55
2020 05 27 18  14 21 49.150   -34 35 33.92  1.3012 2.2426 151.1 22.0 .462  55
2020 05 27 19  14 21 47.067   -34 34 59.46  1.3014 2.2425 151.1 22.0 .477  55
2020 05 27 20  14 21 44.988   -34 34 25.00  1.3015 2.2425 151.0 22.0 .492  55
2020 05 27 21  14 21 42.912   -34 33 50.53  1.3016 2.2425 151.0 22.0 .507  55
2020 05 27 22  14 21 40.840   -34 33 16.05  1.3018 2.2425 151.0 22.0 .523  55
2020 05 27 23  14 21 38.772   -34 32 41.57  1.3019 2.2425 150.9 22.0 .538  55
2020 05 28 00  14 21 36.707   -34 32 07.08  1.3020 2.2424 150.9 22.0 .554  55
2020 05 28 01  14 21 34.646   -34 31 32.59  1.3022 2.2424 150.9 22.0 .570  55
2020 05 28 02  14 21 32.589   -34 30 58.09  1.3023 2.2424 150.8 22.0 .586  55
2020 05 28 03  14 21 30.535   -34 30 23.59  1.3025 2.2424 150.8 22.0 .602  55
2020 05 28 04  14 21 28.485   -34 29 49.08  1.3026 2.2423 150.8 22.0 .618  55
2020 05 28 05  14 21 26.438   -34 29 14.56  1.3027 2.2423 150.7 22.0 .635  55
2020 05 28 06  14 21 24.395   -34 28 40.04  1.3029 2.2423 150.7 22.0 .651  56
2020 05 28 07  14 21 22.356   -34 28 05.51  1.3030 2.2423 150.7 22.0 .668  56
2020 05 28 08  14 21 20.320   -34 27 30.97  1.3032 2.2422 150.6 22.0 .685  56
2020 05 28 09  14 21 18.288   -34 26 56.44  1.3033 2.2422 150.6 22.0 .702  56
2020 05 28 10  14 21 16.260   -34 26 21.89  1.3034 2.2422 150.6 22.0 .720  56